Weather observations for the past three days for
Mineral Wells, Mineral Wells Airport
Imperial (Metric)
Date Time (cdt) Wind (mph) Vis. (mi.) Weather Sky Cond. Temperature (ºF) Relative Humidity Wind Chill (°F) Heat Index (°F) Pressure Precipitation (in)
Air Dwpt 6 hour altimeter (in) sea level (mb) 1 hr 3 hr 6 hr
Max. Min.
23 18:53 SE 10 10.00 Fair CLR 87.1 68 90 84 53% 91 30 1014.7
23 17:53 E 9 10.00 A Few Clouds FEW060 89.1 62.1 41% 89 30.01 1014.8
23 16:53 E 8 10.00 Fair CLR 89.1 64 43% 90 30.01 1015.0
23 15:53 SE 9 10.00 A Few Clouds FEW055 88 64.9 46% 90 30.02 1015.2
23 14:53 S 6 10.00 Partly Cloudy FEW036 SCT045 86 66.9 53% 89 30.04 1015.7
23 13:53 S 12 G 20 10.00 Partly Cloudy SCT036 84.9 69.1 59% 89 30.04 1015.9
23 12:53 Vrbl 7 10.00 Fair CLR 84.9 70 84.9 69.1 61% 89 30.06 1016.5
23 11:53 Calm 10.00 A Few Clouds FEW024 81 69.1 67% 84 30.07 1017.1
23 10:53 Vrbl 3 10.00 Fair CLR 80.1 70 71% 83 30.08 1017.2
23 09:53 Calm 9.00 Mostly Cloudy BKN008 73 69.1 87% 30.07 1017.2
23 08:53 NW 6 3.00 Fog/Mist OVC003 72 70 94% 30.06 1016.8
23 07:53 Calm 0.75 Fog/Mist FEW002 OVC007 71.1 69.1 94% 30.06 1016.6
23 06:53 Calm 0.25 Fog SCT002 BKN006 69.1 68 72 69.1 96% 30.03 1015.8
23 05:53 Calm 4.00 Fog/Mist CLR 70 68 93% 30.02 1015.3
23 04:53 Calm 6.00 Fog/Mist CLR 71.1 69.1 94% 30.02 1014.9
23 03:53 Calm 7.00 Fair CLR 72 69.1 91% 30.01 1014.7
23 02:53 Calm 7.00 Fair CLR 71.1 69.1 94% 29.99 1014.3
23 01:53 Calm 8.00 Fair CLR 71.1 69.1 94% 30 1014.5
23 00:53 Calm 9.00 Fair CLR 72 69.1 78.1 71.1 91% 30.02 1015.1 0.69
22 23:53 Calm 10.00 Fair CLR 72 70 94% 30.02 1015.1
22 22:53 Calm 10.00 Mostly Cloudy BKN120 72 69.1 91% 30.01 1015.0 0.02
22 21:53 SE 6 10.00 Overcast FEW080 OVC110 71.1 69.1 94% 30 1014.5 0.23 0.67
22 20:53 S 10 2.00 Heavy Rain Fog/Mist FEW006 BKN040 OVC060 73 70 90% 30.01 1015.1 0.09
22 19:53 SE 10 7.00 Thunderstorm in Vicinity Rain OVC032 75 71.1 88% 75 29.99 1014.3 0.35
22 18:53 SE 10 G 21 10.00 Light Rain BKN046 OVC060 78.1 70 91 78.1 76% 80 29.96 1013.2
22 17:53 E 9 10.00 Partly Cloudy SCT044 SCT055 87.1 66.9 51% 90 29.95 1012.6
22 16:53 NE 13 G 18 10.00 Partly Cloudy SCT041 90 68 48% 94 29.95 1012.6
22 15:53 N 7 10.00 Partly Cloudy SCT040 90 69.1 50% 95 29.96 1013.0
22 14:53 N 8 10.00 Light Rain FEW032 BKN065 OVC080 86 69.1 57% 90 29.98 1013.7
22 13:53 N 6 10.00 Mostly Cloudy SCT029 BKN038 86 70 59% 91 29.99 1014.3
22 12:53 N 7 10.00 Partly Cloudy SCT024 SCT029 SCT034 84 71.1 84 72 65% 89 30.01 1014.8
22 11:53 N 3 10.00 Partly Cloudy SCT018 SCT038 82 71.1 69% 86 30.03 1015.4
22 10:53 N 5 10.00 A Few Clouds FEW015 80.1 71.1 74% 84 30.03 1015.6
22 09:53 NE 5 10.00 A Few Clouds FEW013 79 71.1 77% 82 30.02 1015.1
22 08:53 N 3 10.00 Fair CLR 77 71.1 82% 79 30.01 1014.7
22 07:53 NE 6 10.00 Fair CLR 73.9 70 88% 29.99 1014.2
22 06:53 NE 3 9.00 Partly Cloudy SCT080 72 70 75 71.1 94% 29.99 1014.2
22 05:53 Calm 10.00 Fair CLR 72 69.1 91% 29.98 1013.8
22 04:53 SW 3 10.00 Fair CLR 72 69.1 91% 29.98 1013.7
22 03:53 Calm 10.00 Fair CLR 73 69.1 87% 29.97 1013.5
22 02:53 Calm 10.00 A Few Clouds FEW070 73 69.1 87% 29.98 1013.6
22 01:53 Calm 10.00 A Few Clouds FEW080 FEW090 73 69.1 87% 29.99 1014.2
22 00:53 Calm 10.00 Mostly Cloudy BKN085 73 69.1 90 73 87% 30 1014.4
21 23:53 E 3 10.00 Fair CLR 73.9 69.1 85% 29.99 1014.3
21 22:53 E 3 10.00 Partly Cloudy FEW050 FEW090 SCT110 73.9 70 88% 30 1014.5
21 21:53 W 13 G 17 10.00 Overcast OVC055 78.1 66.9 69% 80 30.01 1014.8
21 20:53 SE 13 10.00 Thunderstorm in Vicinity CLR 78.1 64.9 64% 80 29.98 1013.8
21 19:53 SE 18 G 24 10.00 Partly Cloudy FEW050 SCT060 84.9 69.1 59% 89 29.95 1012.9
21 18:53 SE 7 10.00 Fair CLR 90 69.1 93 75 50% 95 29.94 1012.4
21 17:53 E 8 10.00 Fair CLR 89.1 72 57% 96 29.94 1012.5 0.04
21 16:53 E 8 10.00 Fair CLR 84.9 70 61% 89 29.94 1012.5
21 15:53 N 22 G 35 10.00 Thunderstorm in Vicinity and Breezy FEW036 SCT043 BKN055 82 66 58% 84 29.97 1013.3
21 14:53 Vrbl 7 10.00 Fair CLR 91 68 47% 95 29.96 1013.1
21 13:53 E 8 10.00 Fair CLR 87.1 69.1 55% 91 30 1014.3
21 12:53 S 10 10.00 Fair CLR 87.1 70 88 72 57% 92 30.01 1014.5 0.04
21 11:53 SE 13 10.00 A Few Clouds FEW085 84.9 71.1 63% 90 30.03 1015.6
21 10:53 S 14 10.00 Overcast OVC085 79 71.1 77% 82 30.04 1015.9
21 09:53 SE 10 10.00 Mostly Cloudy BKN090 79 71.1 77% 82 30.04 1015.7 0.01 0.04
21 08:53 SE 8 6.00 Light Rain FEW029 FEW045 OVC090 75 69.1 82% 75 30.03 1015.4 0.02
21 07:53 SE 9 10.00 Mostly Cloudy BKN095 BKN120 73 68 84% 30.01 1014.9 0.01
21 06:53 SE 9 10.00 Partly Cloudy FEW090 SCT110 73.9 66 81 73 76% 30.02 1015.0
21 05:53 SE 8 10.00 Fair CLR 73.9 66 76% 30.01 1014.7
21 04:53 SE 9 10.00 Fair CLR 75 64.9 71% 77 30.01 1014.6
21 03:53 SE 10 10.00 Overcast SCT080 OVC100 77 64 64% 79 30.02 1014.8
21 02:53 SE 6 10.00 Fair CLR 75.9 64.9 69% 78 30.01 1014.6
21 01:53 S 3 10.00 Light Rain FEW065 BKN090 BKN110 79 64 60% 81 30.02 1014.9
21 00:53 SE 5 10.00 Thunderstorm in Vicinity BKN095 BKN120 81 63 91 81 54% 82 30.03 1015.2
20 23:53 SE 6 10.00 Partly Cloudy SCT090 81 62.1 53% 82 30.02 1015.2
20 22:53 SE 8 10.00 Fair CLR 82.9 63 51% 84 30.02 1015.0
20 21:53 SE 6 10.00 Mostly Cloudy SCT070 BKN100 BKN120 84.9 63 48% 86 30 1014.3
20 20:53 SE 7 10.00 Fair CLR 84.9 62.1 46% 85 29.97 1013.4
20 19:53 SE 6 10.00 Fair CLR 89.1 63 42% 90 29.96 1013.3
Date Time (cdt) Wind (mph) Vis. (mi.) Weather Sky Cond. Air Dwpt Max. Min. Relative Humidity Wind Chill (°F) Heat Index (°F) altimeter (in) sea level (mb) 1 hr 3 hr 6 hr
6 hour
Temperature (ºF) Pressure Precipitation (in)